Welcome to the New NWS' Forecast!
Most changes are behind the scenes, but click here for differences you might notice.

Regional Weather Roundup (RWR)

Issued by National Weather Service (NWS)

                            
000
ASUS44 KLIX 230705
RWRLA 
LOUISIANA WEATHER ROUNDUP
NATIONAL WEATHER SERVICE NEW ORLEANS LA
200 AM CDT TUE OCT 23 2018

NOTE: "FAIR" INDICATES FEW OR NO CLOUDS BELOW 12,000 FEET WITH NO
      SIGNIFICANT WEATHER AND/OR OBSTRUCTIONS TO VISIBILITY.
      SKY/WX - SKY CONDITION AND SIGNIFICANT WEATHER.
      TMP - AIR TEMPERATURE.    DP   - DEWPOINT TEMPERATURE.
      RH  - RELATIVE HUMIDITY.  PRES - PRESSURE.
      HX  - HEAT INDEX.         WCI  - WIND CHILL INDEX.

*  THESE STATIONS ARE NOT NWS OR FAA STATIONS AND ARE NOT UNDER
   NWS QUALITY CONTROL.

LAZ040-048-061>063-065-066-069-230800-
SOUTHEAST LOUISIANA
  
CITY           SKY/WX    TMP DP  RH WIND       PRES   REMARKS
N.O. INTL ARPT CLOUDY    71  68  90 NE7       30.10S                  
N.O. LAKEFRONT FAIR      70  65  84 NE14      30.10F                  
N.O. DOWNTOWN* LGT RAIN  69  65  86 NE8       30.11S                  
RESERVE*       DRIZZLE   68  65  91 NE5       30.11S                  
SLIDELL        LGT RAIN  65  63  93 CALM      30.11S                  
BATON ROUGE    MOCLDY    63  58  83 N3        30.12F                  
BOOTHVILLE     NOT AVBL                                               
BELLE CHASSE   NOT AVBL                                               
BOGALUSA*      FAIR      64  59  83 CALM      30.13F                  
GALLIANO*      DRIZZLE   69  65  88 NE6       30.09S                  
NEW ROADS*     NOT AVBL                                               
GONZALES*      LGT RAIN  63  62  97 N3        30.11S                  
HAMMOND*       RAIN      61  59  94 CALM      30.13S                  
HOUMA*         CLOUDY    68  67  96 NE5       30.09F                  
PORT FOURCHON* CLOUDY    72  72 100 NE13      30.07F                  

$$

LAZ041-044-053-054-230800-
SOUTHWEST LOUISIANA
  
CITY           SKY/WX    TMP DP  RH WIND       PRES   REMARKS
LAKE CHARLES   LGT RAIN  60  54  80 N9        30.12F                  
LAFAYETTE      FAIR      61  57  87 N6        30.12F                  
PATTERSON      LGT RAIN  67  66  97 NE5       30.10F                  
SALT POINT     NOT AVBL                                               
NEW IBERIA     CLOUDY    62  56  80 N6        30.12S                  
CHENAULT AIRPK FAIR      58  53  84 N12       30.13S                  

$$

LAZ027-028-230800-
CENTRAL LOUISIANA
  
CITY           SKY/WX    TMP DP  RH WIND       PRES   REMARKS
FORT POLK      LGT RAIN  57  48  72 CALM      30.14F                  
ALEXANDRIA INT FAIR      54  51  90 W3        30.14F                  
ALEXANDRIA     FAIR      55  49  80 N3        30.15F                  

$$

LAZ001-002-230800-
NORTHWEST LOUISIANA
  
CITY           SKY/WX    TMP DP  RH WIND       PRES   REMARKS
SHREVEPORT     CLOUDY    54  51  90 CALM      30.18F                  
BARKSDALE AFB  FAIR      51  51  98 CALM      30.18S                  
DTN SHREVEPORT FAIR      54  50  86 CALM      30.20R                  

$$

LAZ014-016-230800-
NORTHEAST LOUISIANA
  
CITY           SKY/WX    TMP DP  RH WIND       PRES   REMARKS
MONROE         FAIR      52  47  83 N3        30.19S                  
TALLULAH       FAIR      54  48  80 NE7       30.17F                  

$$